RYR429R EVRA-EGNM

Flight info

Callsign RYR429R
Flight time N/A
Altitude 38000
Route VALED M869 LUKED M405 ADAXA DCT ETRUS DCT MATEK L983 OLPIB M611 ALASA DCT AGISU DCT MIMVA L602 NALAX L46 RIMTO
Aircraft B738/M-SDE3FGILRWY/SB1

Departure

Time 2026-05-05 11:06
Airport Riga International Airport (EVRA)

Arrival

Time N/A
Airport Leeds Bradford Airport (EGNM)
Time Latitude Longitude Altitude Speed Heading
2026-05-05 10:36 56.92197 23.97673 42 ft 0 kts
2026-05-05 10:57 56.92181 23.97671 45 ft 4 kts
2026-05-05 10:57 56.92159 23.97667 43 ft 4 kts 354°
2026-05-05 10:57 56.92139 23.97684 43 ft 4 kts 294°
2026-05-05 10:58 56.92134 23.97724 45 ft 1 kts 275°
2026-05-05 10:59 56.92134 23.97715 45 ft 2 kts 275°
2026-05-05 11:00 56.92137 23.97672 42 ft 5 kts 275°
2026-05-05 11:00 56.92140 23.97609 43 ft 5 kts 275°
2026-05-05 11:00 56.92143 23.97540 45 ft 6 kts 275°
2026-05-05 11:00 56.92165 23.97479 44 ft 7 kts 346°
2026-05-05 11:01 56.92218 23.97484 45 ft 9 kts
2026-05-05 11:01 56.92283 23.97495 45 ft 10 kts
2026-05-05 11:01 56.92353 23.97507 45 ft 10 kts
2026-05-05 11:01 56.92427 23.97526 45 ft 12 kts
2026-05-05 11:02 56.92513 23.97541 45 ft 13 kts
2026-05-05 11:02 56.92607 23.97556 45 ft 14 kts
2026-05-05 11:02 56.92711 23.97573 45 ft 16 kts
2026-05-05 11:02 56.92824 23.97591 45 ft 17 kts
2026-05-05 11:03 56.92944 23.97612 45 ft 18 kts
2026-05-05 11:03 56.93064 23.97632 45 ft 17 kts
2026-05-05 11:03 56.93174 23.97623 45 ft 15 kts 337°
2026-05-05 11:03 56.93275 23.97578 45 ft 15 kts 358°
2026-05-05 11:04 56.93366 23.97589 45 ft 13 kts
2026-05-05 11:04 56.93452 23.97583 44 ft 13 kts 330°
2026-05-05 11:04 56.93497 23.97457 45 ft 12 kts 277°
2026-05-05 11:04 56.93492 23.97321 44 ft 9 kts 233°
2026-05-05 11:05 56.93431 23.97298 44 ft 9 kts 185°
2026-05-05 11:05 56.93353 23.97284 45 ft 20 kts 186°
2026-05-05 11:05 56.92950 23.97218 45 ft 98 kts 185°
2026-05-05 11:05 56.92030 23.97074 72 ft 159 kts 186°
2026-05-05 11:06 56.90906 23.96915 764 ft 168 kts 187°
2026-05-05 11:06 56.89726 23.96732 1628 ft 171 kts 189°
2026-05-05 11:06 56.88454 23.96507 2100 ft 199 kts 193°
2026-05-05 11:06 56.87025 23.96175 2701 ft 211 kts 189°
2026-05-05 11:07 56.85552 23.95832 3432 ft 210 kts 200°
2026-05-05 11:07 56.84337 23.94391 3932 ft 224 kts 232°
2026-05-05 11:07 56.83325 23.92018 4414 ft 246 kts 234°
2026-05-05 11:07 56.82267 23.89540 5358 ft 248 kts 234°
2026-05-05 11:08 56.81209 23.87047 6369 ft 248 kts 234°
2026-05-05 11:08 56.80145 23.84556 7293 ft 250 kts 234°
2026-05-05 11:08 56.79072 23.82055 8236 ft 251 kts 234°
2026-05-05 11:08 56.77989 23.79541 9181 ft 252 kts 234°
2026-05-05 11:09 56.76892 23.77031 10047 ft 255 kts 232°
2026-05-05 11:09 56.75640 23.74546 10391 ft 279 kts 229°
2026-05-05 11:09 56.74222 23.71894 10578 ft 304 kts 228°
2026-05-05 11:09 56.72707 23.69086 11092 ft 316 kts 228°
2026-05-05 11:10 56.71159 23.66214 11844 ft 319 kts 228°
2026-05-05 11:10 56.69602 23.63311 12719 ft 322 kts 228°
2026-05-05 11:10 56.68036 23.60378 13554 ft 326 kts 229°
2026-05-05 11:10 56.66452 23.57405 14328 ft 329 kts 229°
2026-05-05 11:11 56.64854 23.54404 15139 ft 331 kts 229°
2026-05-05 11:11 56.63243 23.51381 15935 ft 334 kts 229°
2026-05-05 11:11 56.61618 23.48333 16713 ft 338 kts 229°
2026-05-05 11:11 56.60044 23.45165 17499 ft 339 kts 233°
2026-05-05 11:12 56.58589 23.41777 18245 ft 341 kts 241°
2026-05-05 11:12 56.57745 23.37773 18882 ft 342 kts 258°
2026-05-05 11:12 56.57507 23.33464 19555 ft 346 kts 269°
2026-05-05 11:12 56.57875 23.29122 20205 ft 354 kts 284°
2026-05-05 11:13 56.58745 23.24904 20858 ft 359 kts 288°
2026-05-05 11:13 56.59688 23.20688 21462 ft 363 kts 288°
2026-05-05 11:13 56.60625 23.16421 22064 ft 366 kts 287°
2026-05-05 11:13 56.61437 23.12032 22669 ft 367 kts 283°
2026-05-05 11:14 56.62164 23.07575 23262 ft 370 kts 283°
2026-05-05 11:14 56.62875 23.03062 23781 ft 373 kts 282°
2026-05-05 11:14 56.63349 23.00051 24119 ft 375 kts 282°
2026-05-05 11:14 56.64073 22.95495 24632 ft 376 kts 282°
2026-05-05 11:15 56.64809 22.90912 25128 ft 379 kts 282°
2026-05-05 11:15 56.65552 22.86313 25608 ft 381 kts 282°
2026-05-05 11:15 56.66303 22.81681 26070 ft 383 kts 282°
2026-05-05 11:15 56.67058 22.77021 26527 ft 385 kts 282°
2026-05-05 11:16 56.67816 22.72329 26975 ft 388 kts 282°
2026-05-05 11:16 56.68577 22.67613 27417 ft 390 kts 282°
2026-05-05 11:16 56.69337 22.62885 27959 ft 390 kts 281°
2026-05-05 11:16 56.70099 22.58145 28422 ft 391 kts 281°
2026-05-05 11:17 56.70862 22.53375 28799 ft 394 kts 281°
2026-05-05 11:17 56.71526 22.48541 29125 ft 393 kts 273°
2026-05-05 11:17 56.71574 22.43597 29502 ft 389 kts 261°
2026-05-05 11:17 56.71042 22.38786 29915 ft 388 kts 255°
2026-05-05 11:18 56.70349 22.34021 30231 ft 390 kts 254°
2026-05-05 11:18 56.69627 22.29258 30553 ft 391 kts 254°
2026-05-05 11:18 56.68904 22.24501 30980 ft 389 kts 254°
2026-05-05 11:18 56.68190 22.19764 31461 ft 387 kts 254°
2026-05-05 11:19 56.67487 22.15057 31895 ft 385 kts 254°
2026-05-05 11:19 56.66788 22.10358 32272 ft 385 kts 254°
2026-05-05 11:19 56.66093 22.05663 32663 ft 384 kts 254°
2026-05-05 11:19 56.65400 22.00990 33106 ft 382 kts 254°
2026-05-05 11:20 56.64717 21.96383 33476 ft 382 kts 254°
2026-05-05 11:20 56.64016 21.91667 33823 ft 382 kts 254°
2026-05-05 11:20 56.63330 21.87071 34158 ft 381 kts 254°
2026-05-05 11:20 56.62634 21.82415 34372 ft 384 kts 254°
2026-05-05 11:21 56.61920 21.77661 34566 ft 386 kts 254°
2026-05-05 11:21 56.61222 21.73022 34810 ft 387 kts 254°
2026-05-05 11:21 56.60511 21.68312 35073 ft 387 kts 254°
2026-05-05 11:21 56.59788 21.63530 35295 ft 389 kts 254°
2026-05-05 11:22 56.59078 21.58853 35490 ft 390 kts 254°
2026-05-05 11:22 56.58344 21.54033 35715 ft 392 kts 254°
2026-05-05 11:22 56.57624 21.49321 35932 ft 393 kts 254°
2026-05-05 11:22 56.56893 21.44543 36191 ft 394 kts 254°
2026-05-05 11:23 56.56156 21.39747 36416 ft 395 kts 253°
2026-05-05 11:23 56.55416 21.34943 36622 ft 397 kts 253°
2026-05-05 11:23 56.54671 21.30124 36855 ft 397 kts 253°
2026-05-05 11:23 56.53923 21.25299 37062 ft 399 kts 254°
2026-05-05 11:24 56.53169 21.20443 37251 ft 401 kts 254°
2026-05-05 11:24 56.52412 21.15579 37502 ft 401 kts 254°
2026-05-05 11:24 56.51697 21.10625 37728 ft 402 kts 258°
2026-05-05 11:24 56.51317 21.05664 37877 ft 405 kts 265°
2026-05-05 11:25 56.51308 21.00456 37913 ft 410 kts 269°
2026-05-05 11:25 56.51445 20.90122 37919 ft 415 kts 269°
2026-05-05 11:26 56.51558 20.79672 37916 ft 415 kts 269°
2026-05-05 11:26 56.51641 20.69227 37909 ft 415 kts 269°
2026-05-05 11:27 56.51708 20.58780 37913 ft 415 kts 269°
2026-05-05 11:27 56.51766 20.48332 37913 ft 415 kts 268°
2026-05-05 11:28 56.51815 20.37899 37879 ft 414 kts 268°
2026-05-05 11:28 56.51854 20.27481 37902 ft 413 kts 268°
2026-05-05 11:29 56.51888 20.17078 37914 ft 413 kts 268°
2026-05-05 11:29 56.51415 20.06771 37914 ft 410 kts 256°
2026-05-05 11:30 56.49668 19.96956 37896 ft 410 kts 251°
2026-05-05 11:30 56.47859 19.87186 37902 ft 410 kts 252°
2026-05-05 11:31 56.46088 19.77390 37918 ft 410 kts 252°
2026-05-05 11:31 56.44313 19.67604 37918 ft 409 kts 252°
2026-05-05 11:32 56.42527 19.57835 37913 ft 409 kts 251°
2026-05-05 11:32 56.40732 19.48082 37898 ft 409 kts 251°
2026-05-05 11:33 56.38928 19.38337 37900 ft 409 kts 251°
2026-05-05 11:33 56.37118 19.28608 37928 ft 409 kts 251°
2026-05-05 11:34 56.35300 19.18885 37911 ft 409 kts 251°
2026-05-05 11:34 56.33473 19.09172 37919 ft 409 kts 251°
2026-05-05 11:35 56.31638 18.99457 37916 ft 409 kts 251°
2026-05-05 11:35 56.29803 18.89819 37914 ft 409 kts 250°
2026-05-05 11:36 56.27646 18.80342 37920 ft 409 kts 247°
2026-05-05 11:36 56.25395 18.70927 37917 ft 410 kts 247°
2026-05-05 11:37 56.23143 18.61520 37904 ft 409 kts 247°
2026-05-05 11:37 56.20896 18.52116 37927 ft 410 kts 247°
2026-05-05 11:38 56.18643 18.42699 37922 ft 411 kts 247°
2026-05-05 11:38 56.16381 18.33283 37921 ft 411 kts 247°
2026-05-05 11:39 56.14107 18.23857 37916 ft 412 kts 247°
2026-05-05 11:39 56.11825 18.14435 37921 ft 412 kts 247°
2026-05-05 11:40 56.09534 18.05022 37924 ft 412 kts 247°
2026-05-05 11:40 56.07234 17.95609 37916 ft 412 kts 246°
2026-05-05 11:41 56.04929 17.86221 37924 ft 412 kts 246°
2026-05-05 11:41 56.02615 17.76837 37921 ft 413 kts 246°
2026-05-05 11:42 56.00292 17.67453 37917 ft 413 kts 246°
2026-05-05 11:42 55.97957 17.58063 37921 ft 413 kts 246°
2026-05-05 11:43 55.95615 17.48683 37924 ft 414 kts 246°
2026-05-05 11:43 55.93266 17.39313 37920 ft 414 kts 246°
2026-05-05 11:44 55.90912 17.29965 37918 ft 414 kts 246°
2026-05-05 11:44 55.88549 17.20619 37910 ft 413 kts 246°
2026-05-05 11:45 55.86196 17.11351 37926 ft 414 kts 246°
2026-05-05 11:45 55.83818 17.02025 37923 ft 414 kts 246°
2026-05-05 11:46 55.81431 16.92703 37927 ft 414 kts 246°
2026-05-05 11:46 55.79035 16.83387 37925 ft 414 kts 246°
2026-05-05 11:47 55.76633 16.74084 37921 ft 414 kts 246°
2026-05-05 11:47 55.74223 16.64790 37924 ft 414 kts 246°
2026-05-05 11:48 55.70595 16.50871 37922 ft 414 kts 245°
2026-05-05 11:48 55.68168 16.41605 37926 ft 414 kts 245°
2026-05-05 11:49 55.65735 16.32356 37923 ft 414 kts 245°
2026-05-05 11:49 55.63296 16.23122 37929 ft 414 kts 245°
2026-05-05 11:50 55.60848 16.13892 37926 ft 414 kts 245°
2026-05-05 11:50 55.58391 16.04668 37926 ft 414 kts 245°
2026-05-05 11:51 55.55927 15.95456 37931 ft 414 kts 245°
2026-05-05 11:51 55.53458 15.86261 37915 ft 414 kts 245°
2026-05-05 11:52 55.50998 15.77137 37930 ft 414 kts 245°
2026-05-05 11:52 55.48499 15.67899 37934 ft 415 kts 245°
2026-05-05 11:53 55.46481 15.58460 37936 ft 415 kts 255°
2026-05-05 11:53 55.45051 15.48596 37929 ft 416 kts 255°
2026-05-05 11:54 55.43604 15.38733 37935 ft 416 kts 255°
2026-05-05 11:54 55.42117 15.28887 37934 ft 416 kts 255°
2026-05-05 11:55 55.40622 15.19032 37934 ft 417 kts 255°
2026-05-05 11:55 55.39121 15.09189 37949 ft 417 kts 254°
2026-05-05 11:56 55.37610 14.99334 37902 ft 417 kts 254°
2026-05-05 11:56 55.36092 14.89499 37926 ft 417 kts 254°
2026-05-05 11:57 55.34567 14.79678 37937 ft 417 kts 254°
2026-05-05 11:57 55.33032 14.69850 37935 ft 417 kts 254°
2026-05-05 11:58 55.31490 14.60040 37934 ft 417 kts 254°
2026-05-05 11:58 55.29940 14.50232 37936 ft 417 kts 254°
2026-05-05 11:59 55.28380 14.40418 37942 ft 418 kts 254°
2026-05-05 11:59 55.26810 14.30602 37936 ft 418 kts 254°
2026-05-05 12:00 55.25233 14.20792 37933 ft 418 kts 253°
2026-05-05 12:00 55.23659 14.11060 37933 ft 418 kts 253°
2026-05-05 12:01 55.22066 14.01266 37930 ft 418 kts 253°
2026-05-05 12:01 55.20465 13.91481 37931 ft 418 kts 253°
2026-05-05 12:02 55.18855 13.81701 37932 ft 418 kts 253°
2026-05-05 12:02 55.17500 13.73505 37938 ft 419 kts 253°
2026-05-05 12:03 55.15874 13.63727 37936 ft 419 kts 253°
2026-05-05 12:03 55.14238 13.53942 37939 ft 419 kts 253°